Terug naar catalogus

DELTA 2 R/B(2)

ActiefHEO
NORAD 23018·ROCKET BODY·🇺🇸 United States

Gelanceerd Feb 19, 1994 vanaf Cape Canaveral Space Force Station

Loading…

Volgende Passages (komende 24 uur)

TLE

VersSource: Space-Track

Epoch: Sep 12, 2026, 08:34 UTC

1 23018U 94013C   26255.35759869 -.00000584  00000-0  00000-0 0  9991
2 23018  24.2529 213.3396 6531669 254.0774  29.3761  2.02386613240513

Volg DELTA 2 R/B(2) in realtime met AllMySat

Download on the App Store